| time (UTC) | temp C | wind direction | speed KPH | gust KPH | rain 1hr cm | rain 24hr cm | rain mn cm | humidity % | barometer mb |
| 20260503021922 | 6 | 208 | 1.6 | 3.2 | 0.00 | 0.00 | 0.00 | 68 | 1019.9 |
| 20260503021418 | 6 | 203 | 1.6 | 1.6 | 0.00 | 0.00 | 0.00 | 65 | 1019.9 |
| 20260503020916 | 6 | 204 | 1.6 | 3.2 | 0.00 | 0.00 | 0.00 | 66 | 1019.8 |
| 20260503020414 | 6 | 205 | 1.6 | 1.6 | 0.00 | 0.00 | 0.00 | 64 | 1019.9 |
| 20260503015909 | 6 | 201 | 0.0 | 0.0 | 0.00 | 0.00 | 0.00 | 64 | 1019.9 |
| 20260503015407 | 6 | 200 | 0.0 | 0.0 | 0.00 | 0.00 | 0.00 | 64 | 1019.9 |
| 20260503014902 | 6 | 208 | 1.6 | 1.6 | 0.00 | 0.00 | 0.00 | 66 | 1019.5 |
| 20260503014400 | 6 | 207 | 1.6 | 1.6 | 0.00 | 0.00 | 0.00 | 67 | 1019.7 |
| 20260503013858 | 6 | 205 | 1.6 | 1.6 | 0.00 | 0.00 | 0.00 | 67 | 1019.8 |
| 20260503013354 | 6 | 204 | 3.2 | 3.2 | 0.00 | 0.00 | 0.00 | 69 | 1019.7 |
| 20260503012851 | 6 | 205 | 1.6 | 3.2 | 0.00 | 0.00 | 0.00 | 67 | 1019.7 |
| 20260503012349 | 6 | 204 | 1.6 | 1.6 | 0.00 | 0.00 | 0.00 | 67 | 1019.7 |
| 20260503011846 | 6 | 205 | 1.6 | 3.2 | 0.00 | 0.00 | 0.00 | 70 | 1019.8 |
| 20260503011343 | 6 | 204 | 1.6 | 3.2 | 0.00 | 0.00 | 0.00 | 70 | 1019.8 |
| 20260503010839 | 6 | 207 | 1.6 | 1.6 | 0.00 | 0.00 | 0.00 | 67 | 1019.8 |
| 20260503010336 | 6 | 209 | 1.6 | 1.6 | 0.00 | 0.00 | 0.00 | 66 | 1019.7 |
| 20260503005833 | 7 | 217 | 1.6 | 1.6 | 0.00 | 0.00 | 0.00 | 62 | 1019.7 |
| 20260503005331 | 7 | 217 | 0.0 | 1.6 | 0.00 | 0.00 | 0.00 | 66 | 1019.7 |
| 20260503004826 | 6 | 218 | 1.6 | 1.6 | 0.00 | 0.00 | 0.00 | 65 | 1019.6 |
| 20260503004325 | 6 | 217 | 1.6 | 1.6 | 0.00 | 0.00 | 0.00 | 67 | 1019.5 |
| 20260503003822 | 6 | 213 | 1.6 | 1.6 | 0.00 | 0.00 | 0.00 | 71 | 1019.6 |
| 20260503003318 | 7 | 217 | 0.0 | 0.0 | 0.00 | 0.00 | 0.00 | 66 | 1019.6 |
| 20260503002815 | 7 | 216 | 0.0 | 0.0 | 0.00 | 0.00 | 0.00 | 65 | 1019.6 |
| 20260503002312 | 7 | 226 | 0.0 | 0.0 | 0.00 | 0.00 | 0.00 | 62 | 1019.7 |
| 20260503001809 | 7 | 232 | 1.6 | 1.6 | 0.00 | 0.00 | 0.00 | 58 | 1019.7 |
| 20260503001305 | 7 | 228 | 1.6 | 1.6 | 0.00 | 0.00 | 0.00 | 63 | 1019.5 |
| 20260503000803 | 7 | 236 | 1.6 | 1.6 | 0.00 | 0.00 | 0.00 | 59 | 1019.5 |
| 20260503000300 | 7 | 236 | 1.6 | 1.6 | 0.00 | 0.00 | 0.00 | 58 | 1019.4 |
| 20260502235757 | 7 | 248 | 3.2 | 3.2 | 0.00 | 0.00 | 0.00 | 58 | 1019.5 |
| 20260502235255 | 7 | 249 | 1.6 | 1.6 | 0.00 | 0.00 | 0.00 | 57 | 1019.5 |
| 20260502234751 | 7 | 243 | 1.6 | 1.6 | 0.00 | 0.00 | 0.00 | 57 | 1019.2 |
| 20260502234248 | 7 | 240 | 1.6 | 1.6 | 0.00 | 0.00 | 0.00 | 57 | 1019.5 |
| 20260502233744 | 7 | 240 | 1.6 | 4.8 | 0.00 | 0.00 | 0.00 | 55 | 1019.5 |
| 20260502233241 | 8 | 247 | 3.2 | 4.8 | 0.00 | 0.00 | 0.00 | 53 | 1019.5 |
| 20260502232737 | 8 | 256 | 3.2 | 3.2 | 0.00 | 0.00 | 0.00 | 53 | 1019.4 |
| 20260502232234 | 8 | 252 | 4.8 | 8.0 | 0.00 | 0.00 | 0.00 | 51 | 1019.5 |
| 20260502231730 | 8 | 259 | 6.4 | 8.0 | 0.00 | 0.00 | 0.00 | 51 | 1019.3 |
| 20260502231228 | 8 | 249 | 8.0 | 8.0 | 0.00 | 0.00 | 0.00 | 51 | 1019.5 |
| 20260502230727 | 8 | 256 | 6.4 | 9.7 | 0.00 | 0.00 | 0.00 | 51 | 1019.5 |
| 20260502230225 | 8 | 286 | 4.8 | 9.7 | 0.00 | 0.00 | 0.00 | 51 | 1019.8 |
| 20260502225720 | 8 | 245 | 6.4 | 8.0 | 0.00 | 0.00 | 0.00 | 48 | 1019.5 |
| 20260502225218 | 9 | 274 | 4.8 | 8.0 | 0.00 | 0.00 | 0.00 | 50 | 1019.8 |
| 20260502224714 | 8 | 269 | 4.8 | 8.0 | 0.00 | 0.00 | 0.00 | 53 | 1019.5 |
| 20260502224211 | 8 | 250 | 8.0 | 11.3 | 0.00 | 0.00 | 0.00 | 51 | 1019.5 |
| 20260502223708 | 8 | 239 | 4.8 | 8.0 | 0.00 | 0.00 | 0.00 | 49 | 1019.6 |
| 20260502223206 | 8 | 255 | 6.4 | 9.7 | 0.00 | 0.00 | 0.00 | 49 | 1019.6 |
| 20260502222704 | 8 | 249 | 4.8 | 12.9 | 0.00 | 0.00 | 0.00 | 48 | 1019.5 |
| 20260502222200 | 8 | 285 | 4.8 | 8.0 | 0.00 | 0.00 | 0.00 | 51 | 1019.4 |
| 20260502221656 | 8 | 280 | 3.2 | 4.8 | 0.00 | 0.00 | 0.00 | 51 | 1019.5 |
| 20260502221153 | 8 | 253 | 6.4 | 9.7 | 0.00 | 0.00 | 0.00 | 49 | 1019.5 |
| 20260502220649 | 8 | 332 | 4.8 | 8.0 | 0.00 | 0.00 | 0.00 | 47 | 1019.6 |
| 20260502220145 | 8 | 255 | 1.6 | 3.2 | 0.00 | 0.00 | 0.00 | 49 | 1019.7 |
| 20260502215643 | 8 | 263 | 3.2 | 4.8 | 0.00 | 0.00 | 0.00 | 50 | 1019.5 |
| 20260502215139 | 8 | 354 | 6.4 | 11.3 | 0.00 | 0.00 | 0.00 | 48 | 1019.6 |
| 20260502214637 | 8 | 287 | 6.4 | 9.7 | 0.00 | 0.00 | 0.00 | 50 | 1019.5 |
| 20260502214134 | 8 | 315 | 4.8 | 11.3 | 0.00 | 0.00 | 0.00 | 53 | 1019.8 |
| 20260502213631 | 8 | 269 | 3.2 | 8.0 | 0.00 | 0.00 | 0.00 | 49 | 1019.5 |
| 20260502213128 | 8 | 324 | 6.4 | 9.7 | 0.00 | 0.00 | 0.00 | 50 | 1019.5 |
| 20260502212627 | 8 | 358 | 11.3 | 14.5 | 0.00 | 0.00 | 0.00 | 50 | 1019.4 |
| 20260502212125 | 8 | 264 | 4.8 | 11.3 | 0.00 | 0.00 | 0.00 | 48 | 1019.8 |
| 20260502211620 | 8 | 321 | 4.8 | 8.0 | 0.00 | 0.00 | 0.00 | 55 | 1019.5 |
| 20260502211118 | 8 | 304 | 3.2 | 11.3 | 0.00 | 0.00 | 0.00 | 49 | 1019.6 |
| 20260502210615 | 8 | 276 | 9.7 | 12.9 | 0.00 | 0.00 | 0.00 | 49 | 1019.6 |
| 20260502210112 | 8 | 343 | 3.2 | 4.8 | 0.00 | 0.00 | 0.00 | 48 | 1019.6 |
| 20260502205608 | 8 | 281 | 4.8 | 9.7 | 0.00 | 0.00 | 0.00 | 53 | 1019.6 |
| 20260502205106 | 8 | 241 | 6.4 | 9.7 | 0.00 | 0.00 | 0.00 | 49 | 1019.8 |
| 20260502204602 | 8 | 290 | 3.2 | 9.7 | 0.00 | 0.00 | 0.00 | 50 | 1019.7 |
| 20260502204100 | 8 | 261 | 9.7 | 11.3 | 0.00 | 0.00 | 0.00 | 50 | 1019.6 |
| 20260502203556 | 8 | 332 | 4.8 | 11.3 | 0.00 | 0.00 | 0.00 | 52 | 1019.6 |
| 20260502203054 | 8 | 270 | 1.6 | 9.7 | 0.00 | 0.00 | 0.00 | 49 | 1019.7 |
| 20260502202549 | 8 | 218 | 6.4 | 8.0 | 0.00 | 0.00 | 0.00 | 50 | 1019.6 |
| 20260502202048 | 8 | 250 | 1.6 | 9.7 | 0.00 | 0.00 | 0.00 | 48 | 1019.9 |
| 20260502201544 | 8 | 333 | 3.2 | 11.3 | 0.00 | 0.00 | 0.00 | 49 | 1019.7 |
| 20260502201040 | 8 | 23 | 3.2 | 9.7 | 0.00 | 0.00 | 0.00 | 50 | 1020.0 |
| 20260502200536 | 9 | 236 | 1.6 | 4.8 | 0.00 | 0.00 | 0.00 | 51 | 1020.2 |
| 20260502200034 | 8 | 2 | 3.2 | 4.8 | 0.00 | 0.00 | 0.00 | 48 | 1020.1 |
| 20260502195531 | 8 | 274 | 4.8 | 12.9 | 0.00 | 0.00 | 0.00 | 49 | 1020.1 |
| 20260502195021 | 8 | 269 | 4.8 | 12.9 | 0.00 | 0.00 | 0.00 | 50 | 1020.2 |
| 20260502194519 | 8 | 329 | 4.8 | 9.7 | 0.00 | 0.00 | 0.00 | 48 | 1020.0 |
| 20260502194015 | 8 | 260 | 8.0 | 12.9 | 0.00 | 0.00 | 0.00 | 52 | 1020.0 |
| 20260502193512 | 8 | 319 | 4.8 | 14.5 | 0.00 | 0.00 | 0.00 | 49 | 1020.1 |
| 20260502193009 | 8 | 316 | 4.8 | 8.0 | 0.00 | 0.00 | 0.00 | 51 | 1020.0 |
| 20260502192505 | 8 | 279 | 11.3 | 17.7 | 0.00 | 0.00 | 0.00 | 54 | 1020.2 |
| 20260502192002 | 8 | 248 | 8.0 | 12.9 | 0.00 | 0.00 | 0.00 | 53 | 1020.1 |
| 20260502191459 | 8 | 264 | 8.0 | 12.9 | 0.00 | 0.00 | 0.00 | 52 | 1020.2 |
| 20260502190956 | 8 | 237 | 0.0 | 3.2 | 0.00 | 0.00 | 0.00 | 50 | 1020.3 |
| 20260502190454 | 8 | 216 | 1.6 | 8.0 | 0.00 | 0.00 | 0.00 | 52 | 1020.5 |
| 20260502185950 | 8 | 348 | 4.8 | 12.9 | 0.00 | 0.00 | 0.00 | 53 | 1020.4 |
| 20260502185445 | 7 | 291 | 3.2 | 9.7 | 0.00 | 0.00 | 0.00 | 55 | 1020.5 |
| 20260502184942 | 7 | 271 | 8.0 | 12.9 | 0.00 | 0.00 | 0.00 | 53 | 1020.4 |
| 20260502184438 | 7 | 265 | 9.7 | 16.1 | 0.00 | 0.00 | 0.00 | 55 | 1020.6 |
| 20260502183934 | 7 | 263 | 4.8 | 16.1 | 0.00 | 0.00 | 0.00 | 59 | 1020.4 |
| 20260502183431 | 7 | 264 | 4.8 | 11.3 | 0.00 | 0.00 | 0.00 | 57 | 1020.6 |
| 20260502182926 | 8 | 259 | 3.2 | 14.5 | 0.00 | 0.00 | 0.00 | 56 | 1020.6 |
| 20260502182422 | 8 | 278 | 6.4 | 11.3 | 0.00 | 0.00 | 0.00 | 53 | 1020.5 |
| 20260502181918 | 8 | 331 | 3.2 | 4.8 | 0.00 | 0.00 | 0.00 | 53 | 1020.6 |
| 20260502181417 | 8 | 284 | 4.8 | 8.0 | 0.00 | 0.00 | 0.00 | 53 | 1020.8 |
| 20260502180915 | 7 | 249 | 8.0 | 9.7 | 0.00 | 0.00 | 0.00 | 57 | 1020.8 |
| 20260502180412 | 7 | 296 | 4.8 | 4.8 | 0.00 | 0.00 | 0.00 | 60 | 1020.9 |
| 20260502170330 | 7 | 281 | 3.2 | 9.7 | 0.00 | 0.00 | 0.00 | 61 | 1021.2 |
| 20260502164318 | 7 | 273 | 1.6 | 3.2 | 0.00 | 0.00 | 0.00 | 57 | 1021.3 |
| 20260502163814 | 7 | 206 | 3.2 | 4.8 | 0.00 | 0.00 | 0.00 | 53 | 1021.3 |
| 20260502163310 | 7 | 184 | 1.6 | 3.2 | 0.00 | 0.00 | 0.00 | 55 | 1021.5 |
| 20260502162808 | 6 | 312 | 1.6 | 4.8 | 0.00 | 0.00 | 0.00 | 56 | 1021.5 |
| 20260502162305 | 7 | 355 | 3.2 | 4.8 | 0.00 | 0.00 | 0.00 | 58 | 1021.5 |
| 20260502161801 | 6 | 247 | 0.0 | 3.2 | 0.00 | 0.00 | 0.00 | 59 | 1021.5 |
| 20260502161257 | 6 | 329 | 3.2 | 4.8 | 0.00 | 0.00 | 0.00 | 57 | 1021.5 |
| 20260502160755 | 6 | 280 | 0.0 | 4.8 | 0.00 | 0.00 | 0.00 | 58 | 1021.6 |
| 20260502160254 | 6 | 168 | 4.8 | 8.0 | 0.00 | 0.00 | 0.00 | 59 | 1021.5 |
| 20260502152218 | 6 | 331 | 1.6 | 9.7 | 0.00 | 0.00 | 0.00 | 62 | 1021.4 |
| 20260502151716 | 6 | 307 | 4.8 | 8.0 | 0.00 | 0.00 | 0.00 | 63 | 1021.3 |
| 20260502151212 | 6 | 277 | 1.6 | 4.8 | 0.00 | 0.00 | 0.00 | 62 | 1021.2 |
| 20260502150709 | 6 | 251 | 1.6 | 4.8 | 0.00 | 0.00 | 0.00 | 61 | 1021.4 |
| 20260502150206 | 7 | 313 | 1.6 | 4.8 | 0.00 | 0.00 | 0.00 | 59 | 1021.1 |
| 20260502140130 | 6 | 152 | 0.0 | 3.2 | 0.00 | 0.00 | 0.00 | 69 | 1020.9 |
| 20260502130554 | 6 | 278 | 3.2 | 9.7 | 0.00 | 0.00 | 0.00 | 74 | 1020.6 |
| 20260502123537 | 5 | 342 | 4.8 | 4.8 | 0.00 | 0.00 | 0.00 | 78 | 1020.6 |
| 20260502123034 | 5 | 272 | 4.8 | 8.0 | 0.00 | 0.00 | 0.00 | 79 | 1020.6 |
| 20260502122531 | 5 | 39 | 1.6 | 4.8 | 0.00 | 0.00 | 0.00 | 78 | 1020.6 |
| 20260502122028 | 5 | 349 | 3.2 | 8.0 | 0.00 | 0.00 | 0.00 | 83 | 1020.8 |
| 20260502121526 | 5 | 330 | 3.2 | 4.8 | 0.00 | 0.00 | 0.00 | 83 | 1020.6 |
| 20260502121023 | 5 | 319 | 3.2 | 8.0 | 0.00 | 0.00 | 0.00 | 83 | 1020.9 |
| 20260502120519 | 4 | 259 | 3.2 | 4.8 | 0.00 | 0.00 | 0.00 | 84 | 1020.5 |
| 20260502115514 | 3 | 291 | 3.2 | 8.0 | 0.00 | 0.00 | 0.00 | 85 | 1020.5 |
| 20260502115010 | 3 | 293 | 0.0 | 8.0 | 0.00 | 0.00 | 0.00 | 85 | 1020.4 |
| 20260502114507 | 3 | 324 | 4.8 | 8.0 | 0.00 | 0.00 | 0.00 | 85 | 1020.4 |
| 20260502114003 | 3 | 322 | 3.2 | 4.8 | 0.00 | 0.00 | 0.00 | 86 | 1020.3 |
| 20260502113501 | 3 | 314 | 1.6 | 4.8 | 0.00 | 0.00 | 0.00 | 86 | 1020.6 |
| 20260502113000 | 3 | 257 | 3.2 | 3.2 | 0.00 | 0.00 | 0.00 | 86 | 1020.3 |
| 20260502112457 | 3 | 243 | 1.6 | 3.2 | 0.00 | 0.00 | 0.00 | 86 | 1020.3 |
| 20260502111954 | 3 | 264 | 1.6 | 4.8 | 0.00 | 0.00 | 0.00 | 86 | 1020.2 |
| 20260502111451 | 3 | 234 | 0.0 | 1.6 | 0.00 | 0.00 | 0.00 | 86 | 1020.0 |
| 20260502110949 | 3 | 258 | 1.6 | 1.6 | 0.00 | 0.00 | 0.00 | 86 | 1020.0 |
| 20260502110446 | 3 | 231 | 0.0 | 0.0 | 0.00 | 0.00 | 0.00 | 86 | 1020.1 |
| 20260502105943 | 3 | 238 | 0.0 | 0.0 | 0.00 | 0.00 | 0.00 | 85 | 1020.0 |
| 20260502105441 | 3 | 235 | 0.0 | 0.0 | 0.00 | 0.00 | 0.00 | 85 | 1020.0 |
| 20260502104938 | 3 | 232 | 0.0 | 0.0 | 0.00 | 0.00 | 0.00 | 85 | 1019.9 |
| 20260502104435 | 3 | 235 | 0.0 | 1.6 | 0.00 | 0.00 | 0.00 | 85 | 1019.8 |
| 20260502103932 | 3 | 250 | 0.0 | 0.0 | 0.00 | 0.00 | 0.00 | 85 | 1019.6 |
| 20260502103430 | 3 | 255 | 0.0 | 0.0 | 0.00 | 0.00 | 0.00 | 85 | 1019.8 |
| 20260502102927 | 3 | 238 | 0.0 | 0.0 | 0.00 | 0.00 | 0.00 | 84 | 1019.8 |
| 20260502102424 | 3 | 245 | 0.0 | 0.0 | 0.00 | 0.00 | 0.00 | 84 | 1019.6 |
| 20260502101921 | 3 | 240 | 0.0 | 3.2 | 0.00 | 0.00 | 0.00 | 85 | 1019.5 |
| 20260502101419 | 3 | 260 | 0.0 | 1.6 | 0.00 | 0.00 | 0.00 | 85 | 1019.6 |
| 20260502100917 | 3 | 235 | 0.0 | 0.0 | 0.00 | 0.00 | 0.00 | 85 | 1019.7 |
| 20260502100416 | 3 | 198 | 0.0 | 1.6 | 0.00 | 0.00 | 0.00 | 86 | 1019.8 |
| 20260502091350 | 3 | 313 | 1.6 | 1.6 | 0.00 | 0.00 | 0.00 | 91 | 1019.6 |
| 20260502090848 | 3 | 27 | 1.6 | 3.2 | 0.00 | 0.00 | 0.00 | 91 | 1019.5 |
| 20260502090344 | 3 | 60 | 0.0 | 1.6 | 0.00 | 0.00 | 0.00 | 91 | 1019.5 |
| 20260502071239 | 3 | 270 | 3.2 | 8.0 | 0.00 | 0.00 | 0.00 | 81 | 1019.1 |
| 20260502070737 | 3 | 247 | 1.6 | 4.8 | 0.00 | 0.00 | 0.00 | 82 | 1018.9 |
| 20260502070234 | 3 | 254 | 3.2 | 8.0 | 0.00 | 0.00 | 0.00 | 83 | 1019.0 |
| 20260502065733 | 3 | 266 | 3.2 | 4.8 | 0.00 | 0.00 | 0.00 | 85 | 1019.1 |
| 20260502065230 | 3 | 257 | 4.8 | 4.8 | 0.00 | 0.00 | 0.00 | 88 | 1019.1 |
| 20260502064729 | 3 | 250 | 1.6 | 4.8 | 0.00 | 0.00 | 0.00 | 88 | 1019.2 |
| 20260502064226 | 3 | 247 | 3.2 | 4.8 | 0.00 | 0.00 | 0.00 | 87 | 1018.9 |
| 20260502063723 | 3 | 251 | 3.2 | 8.0 | 0.00 | 0.00 | 0.00 | 87 | 1019.2 |
| 20260502063221 | 3 | 252 | 4.8 | 4.8 | 0.00 | 0.00 | 0.00 | 87 | 1019.3 |
| 20260502062718 | 3 | 250 | 3.2 | 4.8 | 0.00 | 0.00 | 0.00 | 87 | 1019.4 |
| 20260502062216 | 3 | 235 | 3.2 | 3.2 | 0.00 | 0.00 | 0.00 | 87 | 1019.3 |
| 20260502061714 | 3 | 240 | 1.6 | 3.2 | 0.00 | 0.00 | 0.00 | 86 | 1019.0 |
| 20260502061211 | 3 | 247 | 4.8 | 8.0 | 0.00 | 0.00 | 0.00 | 85 | 1019.3 |
| 20260502060706 | 4 | 248 | 4.8 | 4.8 | 0.00 | 0.00 | 0.00 | 85 | 1019.3 |
| 20260502060203 | 4 | 249 | 3.2 | 3.2 | 0.00 | 0.00 | 0.00 | 84 | 1019.3 |
| 20260502055701 | 4 | 272 | 3.2 | 4.8 | 0.00 | 0.00 | 0.00 | 85 | 1019.3 |
| 20260502055158 | 4 | 248 | 1.6 | 3.2 | 0.00 | 0.00 | 0.00 | 86 | 1019.2 |
| 20260502054658 | 4 | 265 | 1.6 | 1.6 | 0.00 | 0.00 | 0.00 | 87 | 1019.3 |
| 20260502054154 | 4 | 263 | 3.2 | 3.2 | 0.00 | 0.00 | 0.00 | 87 | 1019.3 |
| 20260502053652 | 3 | 246 | 1.6 | 3.2 | 0.00 | 0.00 | 0.00 | 89 | 1019.4 |
| 20260502053148 | 3 | 260 | 0.0 | 3.2 | 0.00 | 0.00 | 0.00 | 90 | 1019.4 |
| 20260502052647 | 3 | 245 | 1.6 | 1.6 | 0.00 | 0.00 | 0.00 | 91 | 1019.6 |
| 20260502052144 | 3 | 242 | 1.6 | 1.6 | 0.00 | 0.00 | 0.00 | 92 | 1019.4 |
| 20260502051643 | 3 | 249 | 0.0 | 3.2 | 0.00 | 0.00 | 0.00 | 92 | 1019.5 |
| 20260502051140 | 3 | 234 | 0.0 | 0.0 | 0.00 | 0.00 | 0.00 | 92 | 1019.6 |
| 20260502050636 | 3 | 253 | 1.6 | 1.6 | 0.00 | 0.00 | 0.00 | 92 | 1019.5 |
| 20260502050133 | 3 | 245 | 1.6 | 3.2 | 0.00 | 0.00 | 0.00 | 93 | 1019.4 |
| 20260502045630 | 3 | 243 | 1.6 | 1.6 | 0.00 | 0.00 | 0.00 | 93 | 1019.4 |
| 20260502045127 | 3 | 263 | 1.6 | 1.6 | 0.00 | 0.00 | 0.00 | 93 | 1019.6 |
| 20260502044623 | 3 | 236 | 1.6 | 1.6 | 0.00 | 0.00 | 0.00 | 93 | 1019.7 |
| 20260502044120 | 3 | 229 | 0.0 | 0.0 | 0.00 | 0.00 | 0.00 | 93 | 1019.6 |
| 20260502043618 | 3 | 226 | 0.0 | 0.0 | 0.00 | 0.00 | 0.00 | 92 | 1019.5 |
| 20260502043109 | 3 | 222 | 0.0 | 1.6 | 0.00 | 0.00 | 0.00 | 91 | 1019.5 |
| 20260502042609 | 3 | 217 | 1.6 | 1.6 | 0.00 | 0.00 | 0.00 | 90 | 1019.4 |
| 20260502042106 | 3 | 223 | 1.6 | 1.6 | 0.00 | 0.00 | 0.00 | 89 | 1019.6 |
| 20260502041604 | 4 | 229 | 0.0 | 1.6 | 0.00 | 0.00 | 0.00 | 87 | 1019.4 |
| 20260502041101 | 5 | 233 | 0.0 | 1.6 | 0.00 | 0.00 | 0.00 | 86 | 1019.6 |
| 20260502040557 | 5 | 239 | 0.0 | 1.6 | 0.00 | 0.00 | 0.00 | 86 | 1019.5 |
| 20260502040055 | 5 | 240 | 1.6 | 3.2 | 0.00 | 0.00 | 0.00 | 85 | 1019.4 |
| 20260502035550 | 5 | 243 | 1.6 | 3.2 | 0.00 | 1.37 | 1.37 | 85 | 1019.5 |
| 20260502035048 | 5 | 253 | 1.6 | 1.6 | 0.00 | 1.37 | 1.37 | 84 | 1019.2 |
| 20260502034546 | 5 | 297 | 1.6 | 3.2 | 0.00 | 1.37 | 1.37 | 85 | 1019.3 |
| 20260502034044 | 5 | 243 | 1.6 | 3.2 | 0.00 | 1.37 | 1.37 | 86 | 1019.1 |
| 20260502033542 | 5 | 240 | 0.0 | 3.2 | 0.00 | 1.37 | 1.37 | 87 | 1019.4 |
| 20260502033039 | 5 | 246 | 1.6 | 1.6 | 0.00 | 1.37 | 1.37 | 87 | 1019.4 |
| 20260502032535 | 5 | 240 | 0.0 | 1.6 | 0.00 | 1.37 | 1.37 | 87 | 1019.5 |
| 20260502032032 | 5 | 249 | 1.6 | 3.2 | 0.00 | 1.37 | 1.37 | 87 | 1019.4 |
| 20260502031530 | 5 | 244 | 0.0 | 1.6 | 0.00 | 1.37 | 1.37 | 88 | 1019.2 |
| 20260502031027 | 5 | 232 | 0.0 | 1.6 | 0.00 | 1.37 | 1.37 | 89 | 1019.4 |
| 20260502030526 | 5 | 236 | 0.0 | 1.6 | 0.00 | 1.37 | 1.37 | 89 | 1019.2 |
| 20260502030023 | 5 | 242 | 1.6 | 1.6 | 0.00 | 1.37 | 1.37 | 89 | 1019.1 |
| 20260502025520 | 5 | 237 | 0.0 | 1.6 | 0.00 | 1.37 | 1.37 | 89 | 1019.2 |
| 20260502025019 | 5 | 239 | 1.6 | 1.6 | 0.00 | 1.37 | 1.37 | 88 | 1019.2 |
| 20260502024515 | 5 | 250 | 1.6 | 1.6 | 0.00 | 1.37 | 1.37 | 87 | 1019.3 |
| 20260502024014 | 5 | 252 | 1.6 | 1.6 | 0.00 | 1.37 | 1.37 | 87 | 1019.1 |
| 20260502023511 | 5 | 244 | 0.0 | 0.0 | 0.00 | 1.37 | 1.37 | 87 | 1019.0 |
| 20260502023008 | 5 | 251 | 0.0 | 0.0 | 0.00 | 1.37 | 1.37 | 87 | 1019.0 |
| 20260502022505 | 5 | 225 | 0.0 | 0.0 | 0.00 | 1.37 | 1.37 | 87 | 1019.1 |